Weather reports worldwide

Advertisment
Lyon/Satolas, France (7481): temperature & dewpoint: 18.01.2020 03:00:00 - 24.01.2020 03:00:00 (CET)Lyon/Satolas, France (7481): temperature 5cm: 18.01.2020 03:00:00 - 24.01.2020 03:00:00 (CET)Lyon/Satolas, France (7481): temperature -20cm & temperature -100cm: 18.01.2020 03:00:00 - 24.01.2020 03:00:00 (CET)Lyon/Satolas, France (7481): wind speed & gusts: 18.01.2020 03:00:00 - 24.01.2020 03:00:00 (CET)Lyon/Satolas, France (7481): wind direction: 18.01.2020 03:00:00 - 24.01.2020 03:00:00 (CET)Lyon/Satolas, France (7481): reduced air pressure: 18.01.2020 03:00:00 - 24.01.2020 03:00:00 (CET)Lyon/Satolas, France (7481): visibility: 18.01.2020 03:00:00 - 24.01.2020 03:00:00 (CET)Lyon/Satolas, France (7481): precipitation: 18.01.2020 03:00:00 - 24.01.2020 03:00:00 (CET)
Date & Time tt [°C] td [°C] tt 5cm [°C] tt -20cm [°C] tt -100cm [°C] ff [km/h] ff [kn] fx [km/h] fx [kn] dd ppp [hPa] vv [km] rr [mm]
24.01.2020 03:00:00 -2,6 -2,7 -2,5 2,6 7,1 4 2 8 4 E 1026,8 0,1 0,0
24.01.2020 02:00:00 -2,4 -2,5 -2,3 2,6 7,1 2 1 9 5 WNW 1026,9 0,1 0,0
24.01.2020 01:00:00 -2,5 -2,6 -2,3 2,6 7,2 4 2 7 4 ENE 1027,4 0,1 0,0
24.01.2020 00:00:00 -2,1 -2,2 -1,9 2,7 7,2 2 1 5 3 W 1027,8 0,1 0,0
23.01.2020 23:00:00 -1,8 -1,9 -1,6 2,7 7,2 4 2 8 4 ESE 1027,7 0,1 0,0
23.01.2020 22:00:00 -1,4 -1,5 -1,4 2,7 7,2 4 2 9 5 ENE 1027,8 0,1 0,0
23.01.2020 21:00:00 -1,3 -1,4 -1,3 2,8 7,2 0 0 5 3 N 1027,8 0,1 0,0
23.01.2020 20:00:00 -0,9 -1,0 -0,9 2,8 7,2 4 2 16 9 S 1027,7 0,1 0,0
23.01.2020 19:00:00 -0,7 -0,8 -0,6 2,8 7,2 5 3 11 6 ESE 1027,5 0,1 0,0
23.01.2020 18:00:00 -0,5 -0,8 -0,5 2,8 7,2 2 1 9 5 SSE 1027,2 0,4 0,0
23.01.2020 17:00:00 -0,4 -0,5 0,1 2,7 7,2 4 2 11 6 N 1026,8 1,0 0,0
23.01.2020 16:00:00 -0,4 -0,5 0,5 2,6 7,3 3 2 10 5 N 1026,9 1,0 0,0
23.01.2020 15:00:00 -0,4 -0,5 1,0 2,5 7,3 5 3 10 5 NNE 1027,2 1,2 0,0
23.01.2020 14:00:00 -0,6 -0,7 0,0 2,4 7,2 4 2 10 6 NNE 1027,9 0,5 0,0
23.01.2020 13:00:00 -1,1 -1,2 -0,2 2,4 7,3 6 4 14 8 NE 1028,6 0,3 0,0
23.01.2020 12:00:00 -1,4 -1,5 -0,8 2,4 7,3 4 2 10 5 N 1029,3 0,2 0,0
23.01.2020 11:00:00 -1,8 -1,9 -1,5 2,4 7,3 6 3 11 6 N 1029,5 0,2 0,0
23.01.2020 10:00:00 -2,3 -2,4 -2,3 2,5 7,4 5 3 13 7 NNE 1029,1 0,1 0,0
23.01.2020 09:00:00 -3,0 -3,1 -3,0 2,5 7,3 4 2 10 5 NE 1029,4 0,1 0,0
23.01.2020 08:00:00 -3,3 -3,6 -3,2 2,6 7,4 5 3 10 5 NE 1029,5 0,1 0,0
23.01.2020 07:00:00 -2,5 -3,1 -4,0 2,6 7,4 2 1 5 3 N 1029,6 0,2 0,0
23.01.2020 06:00:00 -2,0 -2,7 -3,6 2,7 7,4 0 0 3 1 N 1029,5 1,4 0,0
23.01.2020 05:00:00 -1,5 -2,3 -3,4 2,7 7,4 4 2 6 3 N 1029,5 1,8 0,0
23.01.2020 04:00:00 -1,2 -2,0 -2,7 2,8 7,4 3 2 7 4 NE 1030,1 1,8 0,0
23.01.2020 03:00:00 -0,9 -1,7 -2,6 2,9 7,4 4 2 7 4 NNE 1030,6 2,8 0,0
23.01.2020 02:00:00 -0,8 -1,9 -2,5 2,9 7,4 3 1 5 3 NNW 1030,9 2,8 0,0
23.01.2020 01:00:00 -0,2 -1,3 -1,8 3,0 7,4 4 2 6 3 SW 1031,2 2,3 0,0
23.01.2020 00:00:00 -0,2 -1,3 -1,8 3,1 7,4 4 2 8 5 W 1031,5 3,3 0,0
22.01.2020 23:00:00 -0,2 -1,3 -2,4 3,3 7,5 4 2 11 6 SW 1031,8 3,8 0,0
22.01.2020 22:00:00 -0,3 -1,6 -2,3 3,3 7,5 4 2 8 4 NNE 1031,9 5 0,0
22.01.2020 21:00:00 0,4 -1,0 -2,1 3,5 7,5 3 2 6 3 NNW 1032,0 7 0,0
22.01.2020 20:00:00 1,4 -1,0 -1,2 3,6 7,5 2 1 5 3 SW 1032,1 7 0,0
22.01.2020 19:00:00 2,2 -0,4 -0,1 3,6 7,5 4 2 7 4 WSW 1032,0 7 0,0
22.01.2020 18:00:00 2,5 -0,4 -0,1 3,7 7,5 3 1 8 4 WNW 1031,8 6 0,0
22.01.2020 17:00:00 3,5 -0,2 2,4 3,6 7,5 3 2 8 4 W 1031,6 8 0,0
22.01.2020 16:00:00 3,9 -0,5 4,9 3,5 7,5 0 0 10 6 N 1031,8 8 0,0
22.01.2020 15:00:00 3,9 -0,5 5,9 3,2 7,5 6 3 16 9 NE 1032,3 9 0,0
22.01.2020 14:00:00 3,3 -0,5 6,0 2,9 7,5 9 5 15 8 N 1033,3 7 0,0
22.01.2020 13:00:00 2,0 -1,3 3,7 2,7 7,5 9 5 14 7 N 1034,4 7 0,0
22.01.2020 12:00:00 0,6 -1,2 1,6 2,7 7,5 6 3 9 5 N 1035,2 5 0,0
22.01.2020 11:00:00 0,0 -1,8 -0,2 2,7 7,6 0 0 10 5 N 1035,3 4,5 0,0
22.01.2020 10:00:00 -1,1 -2,1 -1,5 2,8 7,6 0 0 8 4 N 1034,5 4,0 0,0
22.01.2020 09:00:00 -1,4 -2,4 -3,4 2,8 7,6 4 2 10 5 S 1034,6 4,0 0,0
22.01.2020 08:00:00 -2,1 -2,9 -3,7 2,9 7,6 2 1 8 4 WSW 1034,6 3,3 0,0
22.01.2020 07:00:00 -2,4 -3,4 -3,7 3,0 7,6 4 2 7 4 S 1035,0 4,5 0,0
22.01.2020 06:00:00 -1,6 -3,0 -3,1 3,0 7,6 3 2 11 6 SE 1035,0 6 0,0
22.01.2020 05:00:00 -0,9 -2,6 -2,4 3,1 7,6 9 5 11 6 SSE 1035,4 6 0,0
22.01.2020 04:00:00 -0,9 -2,2 -2,2 3,2 7,6 7 4 8 4 SSE 1035,8 7 0,0
22.01.2020 03:00:00 -0,6 -2,0 -1,3 3,3 7,6 6 3 8 5 SSE 1036,1 7 0,0
22.01.2020 02:00:00 -0,2 -2,3 -1,4 3,4 7,7 4 2 9 5 SE 1035,9 7 0,0
22.01.2020 01:00:00 -0,1 -2,3 -1,5 3,5 7,7 6 4 12 6 SE 1036,3 7 0,0
22.01.2020 00:00:00 0,5 -2,2 -1,4 3,6 7,7 6 4 9 5 SSE 1036,8 8 0,0
21.01.2020 23:00:00 0,7 -2,2 -1,1 3,7 7,7 3 2 11 6 S 1037,2 9 0,0
21.01.2020 22:00:00 0,9 -2,3 -1,4 3,8 7,7 5 3 14 8 WSW 1037,4 11 0,0
21.01.2020 21:00:00 1,1 -2,5 -1,6 4,0 7,7 0 0 7 4 N 1037,3 12 0,0
21.01.2020 20:00:00 1,7 -2,1 -0,8 4,1 7,7 4 2 7 4 WSW 1037,4 16 0,0
21.01.2020 19:00:00 2,0 -2,3 -0,4 4,2 7,7 6 4 11 6 N 1037,0 18 0,0
21.01.2020 18:00:00 2,7 -2,0 1,6 4,3 7,7 8 4 11 6 N 1036,8 18 0,0
21.01.2020 17:00:00 3,7 -0,9 3,0 4,2 7,7 7 4 13 7 NNE 1036,8 18 0,0
21.01.2020 16:00:00 4,4 -1,4 5,2 4,0 7,8 10 5 14 7 N 1037,2 18 0,0
21.01.2020 15:00:00 4,7 -2,2 6,8 3,7 7,7 6 4 15 8 NNW 1037,8 18 0,0
21.01.2020 14:00:00 4,3 -1,9 6,0 3,4 7,8 5 3 10 5 NW 1038,8 18 0,0
21.01.2020 13:00:00 3,5 -2,1 6,1 3,0 7,8 5 3 12 7 W 1039,7 15 0,0
21.01.2020 12:00:00 2,3 -1,7 3,0 2,9 7,8 5 3 19 10 W 1040,6 15 0,0
21.01.2020 11:00:00 0,6 -2,5 3,9 3,0 7,8 6 3 11 6 W 1041,1 12 0,0
21.01.2020 10:00:00 -0,2 -1,9 1,9 3,0 7,8 5 3 8 4 NNW 1040,9 11 0,0
21.01.2020 09:00:00 -1,4 -2,2 -2,7 3,1 7,8 2 1 10 6 E 1040,9 11 0,0
21.01.2020 08:00:00 -1,6 -2,9 -3,1 3,1 7,9 8 5 16 9 NE 1040,3 9 0,0
21.01.2020 07:00:00 -1,2 -2,8 -2,8 3,2 7,9 4 2 5 3 NE 1040,0 10 0,0
21.01.2020 06:00:00 -0,4 -1,8 -1,3 3,3 7,9 0 0 4 2 N 1039,6 11 0,0
21.01.2020 05:00:00 0,0 -2,5 -1,1 3,4 7,9 3 1 6 3 S 1039,7 11 0,0
21.01.2020 04:00:00 -0,4 -2,6 -1,3 3,5 7,9 0 0 5 3 N 1039,5 12 0,0
21.01.2020 03:00:00 -0,1 -2,8 -2,4 3,5 7,9 3 2 7 4 SW 1040,1 12 0,0
21.01.2020 02:00:00 0,4 -2,3 -2,1 3,6 7,9 4 2 6 3 WSW 1039,9 15 0,0
21.01.2020 01:00:00 1,4 -2,2 -0,3 3,7 7,9 5 3 7 4 SSW 1040,0 10 0,0
21.01.2020 00:00:00 1,5 -2,1 0,3 3,8 7,9 6 3 9 5 W 1039,7 15 0,0
20.01.2020 23:00:00 1,4 -2,0 -0,6 3,8 7,9 7 4 17 9 SW 1039,5 15 0,0
20.01.2020 22:00:00 1,8 -2,0 0,3 4,0 8,0 6 3 21 12 SW 1039,3 17 0,0
20.01.2020 21:00:00 1,9 -1,7 -0,5 4,1 8,0 6 3 9 5 SSW 1039,3 20 0,0
20.01.2020 20:00:00 2,0 -1,8 -0,6 4,3 8,0 5 3 11 6 W 1039,0 25 0,0
20.01.2020 19:00:00 2,8 -1,4 1,0 4,4 8,0 6 4 14 8 W 1039,1 30 0,0
20.01.2020 18:00:00 3,6 -1,0 2,3 4,5 8,0 11 6 21 11 NW 1038,5 40 0,0
20.01.2020 17:00:00 5,6 -2,3 6,0 4,4 8,1 9 5 21 11 NNW 1038,3 40 0,0
20.01.2020 16:00:00 6,2 -2,4 8,8 4,1 8,0 12 6 20 11 NNW 1038,3 40 0,0
20.01.2020 15:00:00 5,7 -2,7 8,7 3,8 8,1 4 2 18 10 NNW 1038,4 40 0,0
20.01.2020 14:00:00 4,7 -2,2 8,0 3,4 8,1 9 5 15 8 N 1038,8 40 0,0
20.01.2020 13:00:00 3,8 -1,8 6,2 3,1 8,1 8 4 19 10 NW 1039,3 35 0,0
20.01.2020 12:00:00 2,6 -1,9 4,7 3,1 8,1 6 3 14 8 W 1039,8 30 0,0
20.01.2020 11:00:00 1,5 -2,1 4,5 3,1 8,1 5 3 14 8 NW 1039,8 24 0,0
20.01.2020 10:00:00 0,8 -2,1 0,7 3,2 8,1 7 4 20 11 W 1039,7 25 0,0
20.01.2020 09:00:00 -1,4 -2,8 -3,1 3,3 8,1 3 1 6 4 W 1039,4 16 0,0
20.01.2020 08:00:00 -1,5 -2,9 -2,6 3,3 8,1 3 1 8 5 NW 1038,8 20 0,0
20.01.2020 07:00:00 -1,3 -3,0 -2,8 3,4 8,1 7 4 9 5 WNW 1038,1 15 0,0
20.01.2020 06:00:00 -0,7 -2,4 -2,0 3,5 8,2 7 4 9 5 WNW 1037,8 20 0,0
20.01.2020 05:00:00 -0,6 -2,3 -2,0 3,6 8,2 5 3 11 6 W 1037,5 25 0,0
20.01.2020 04:00:00 -0,4 -2,3 -1,5 3,7 8,2 8 4 13 7 NNW 1037,6 25 0,0
20.01.2020 03:00:00 0,5 -2,1 -0,5 3,8 8,2 5 3 21 11 N 1037,3 25 0,0
20.01.2020 02:00:00 1,0 -1,7 0,1 3,9 8,2 12 6 25 14 N 1037,0 25 0,0
20.01.2020 01:00:00 1,4 -1,3 0,4 4,0 8,2 19 11 35 19 N 1036,7 25 0,0
20.01.2020 00:00:00 1,6 -1,1 0,7 4,1 8,2 25 13 43 23 N 1036,6 30 0,0
19.01.2020 23:00:00 2,0 -1,3 1,3 4,3 8,2 29 16 42 23 N 1036,1 30 0,0
19.01.2020 22:00:00 2,3 -1,3 1,5 4,4 8,2 24 13 45 24 N 1036,1 30 0,0
19.01.2020 21:00:00 2,6 -0,9 1,8 4,5 8,2 30 16 49 26 N 1035,9 30 0,0
19.01.2020 20:00:00 3,1 -1,8 2,1 4,7 8,3 29 16 48 26 N 1035,2 50 0,0
19.01.2020 19:00:00 3,5 -2,3 2,6 4,8 8,3 34 18 49 27 N 1034,8 50 0,0
19.01.2020 18:00:00 3,8 -1,6 3,0 4,9 8,3 32 17 56 30 N 1033,9 40 0,0
19.01.2020 17:00:00 4,8 -1,4 5,1 4,9 8,3 34 18 56 30 N 1033,3 40 0,0
19.01.2020 16:00:00 5,5 -0,6 6,9 4,8 8,3 38 20 58 31 N 1032,7 35 0,0
19.01.2020 15:00:00 5,4 0,4 6,8 4,6 8,3 41 22 56 31 N 1032,4 35 0,0
19.01.2020 14:00:00 4,9 0,3 6,6 4,4 8,3 41 22 56 30 N 1032,3 35 0,0
19.01.2020 13:00:00 4,3 -0,5 5,5 4,1 8,3 31 17 48 26 N 1032,6 35 0,0
19.01.2020 12:00:00 3,7 -0,9 4,7 4,0 8,3 25 14 37 20 N 1032,7 35 0,0
19.01.2020 11:00:00 2,2 -0,9 2,4 4,0 8,3 18 10 30 16 N 1032,4 30 0,0
19.01.2020 10:00:00 1,1 -0,7 0,6 4,1 8,4 23 12 35 19 N 1031,8 25 0,0
19.01.2020 09:00:00 0,6 -0,9 -0,1 4,2 8,3 20 11 29 16 N 1031,5 25 0,0
19.01.2020 08:00:00 0,7 -0,8 -0,1 4,3 8,4 14 8 26 14 N 1030,7 25 0,0
19.01.2020 07:00:00 0,8 -0,4 -0,4 4,4 8,4 14 7 19 11 NNW 1030,4 20 0,0
19.01.2020 06:00:00 0,4 -1,0 -0,4 4,6 8,4 14 8 22 12 N 1029,9 40 0,0
19.01.2020 05:00:00 0,6 -1,2 -0,2 4,7 8,4 14 8 19 11 NNW 1029,5 40 0,0
19.01.2020 04:00:00 0,5 -1,1 -0,3 4,8 8,4 11 6 15 8 NW 1029,4 40 0,0
19.01.2020 03:00:00 0,5 -1,0 -0,4 5,0 8,4 10 5 14 8 NNW 1029,2 30 0,0
19.01.2020 02:00:00 0,8 -0,7 -0,2 5,2 8,4 6 3 10 5 WNW 1029,0 30 0,0
19.01.2020 01:00:00 1,2 -0,3 -0,1 5,4 8,4 4 2 11 6 W 1028,3 30 0,0
19.01.2020 00:00:00 1,0 -0,3 0,2 5,6 8,4 8 4 17 9 W 1028,0 30 0,0
18.01.2020 23:00:00 1,5 0,0 -0,6 5,8 8,4 9 5 15 8 NNW 1027,1 30 0,0
18.01.2020 22:00:00 2,2 0,3 0,7 6,0 8,4 10 5 22 12 NNE 1027,2 35 0,0
18.01.2020 21:00:00 2,8 0,7 1,4 6,2 8,4 10 6 18 10 N 1027,6 40 0,0
18.01.2020 20:00:00 3,4 0,6 2,1 6,4 8,4 11 6 15 8 N 1027,5 40 0,0
18.01.2020 19:00:00 4,0 0,7 2,8 6,6 8,4 14 7 17 9 N 1027,5 40 0,0
18.01.2020 18:00:00 5,0 1,1 3,9 6,7 8,4 14 8 19 10 N 1027,3 40 0,0
18.01.2020 17:00:00 6,7 1,0 6,6 6,7 8,4 13 7 26 14 N 1027,3 40 0,0
18.01.2020 16:00:00 7,8 1,4 9,7 6,6 8,4 17 9 27 15 N 1027,5 40 0,0
18.01.2020 15:00:00 7,3 1,1 7,8 6,4 8,4 16 9 23 12 N 1027,9 40 0,0
18.01.2020 14:00:00 7,7 2,0 9,7 6,0 8,4 14 8 22 12 N 1028,4 40 0,0
18.01.2020 13:00:00 6,9 3,0 9,3 5,7 8,4 9 5 22 12 NNE 1029,2 40 0,0
18.01.2020 12:00:00 6,5 3,1 8,4 5,4 8,4 9 5 16 9 NNE 1030,4 40 0,0
18.01.2020 11:00:00 5,1 3,6 6,8 5,3 8,4 9 5 16 9 N 1030,9 25 0,0
18.01.2020 10:00:00 3,5 2,8 2,3 5,4 8,4 4 2 11 6 WSW 1031,2 15 0,0
18.01.2020 09:00:00 1,5 1,2 -1,4 5,6 8,4 6 4 10 6 SW 1031,4 8 0,0
18.01.2020 08:00:00 1,5 0,9 -0,6 5,7 8,4 8 4 14 8 ESE 1030,9 9 0,0
18.01.2020 07:00:00 1,8 1,4 -0,6 5,9 8,4 8 4 11 6 SE 1030,7 20 0,0
18.01.2020 06:00:00 2,5 1,9 0,9 6,1 8,4 2 1 4 2 N 1030,7 14 0,0
18.01.2020 05:00:00 2,4 1,7 0,2 6,3 8,4 3 1 4 2 SSE 1031,0 20 0,0
18.01.2020 04:00:00 2,7 1,8 0,3 6,5 8,4 0 0 11 6 N 1031,0 20 0,0
18.01.2020 03:00:00 3,4 2,4 0,4 6,8 8,4 6 3 7 4 ENE 1030,8 20 0,0

tt = temperature
td = dewpoint
tt 5cm = temperature 5cm
tt -20cm = temperature -20cm
tt -100cm = temperature -100cm
ff = wind speed
fx = gusts
dd = wind direction
ppp = reduced air pressure
vv = visibility
rr = precipitation

Next stations